SCP
0 0 0 0 0 0 0 0 0 0 0 0 0 0 0 0 0 0 0 0 0 0 0 0 0 0 0 0 0 0 0 0 0 0 0 0 0 0 0 0 0 0 0
0 0 0 0 0 0 0 0 0 0 0 0 0 0 0 0 0 0 0 0 0 0 0 0 0 0 0 0 0 0 0 0 0 0 0 0 0 0 0 0 0 0 0
0 0 0 0 0 0 0 0 0 0 0 0 0 0 0 0 0 0 0 0 0 0 0 0 0 0 0 0 0 0 0 0 0 0 0 0 0 0 0 0 0 0 0
0 0 0 0 0 0 0 0 0 0 0 0 0 0 0 0 0 0 0 0 0 0 0 0 0 0 0 0 0 0 0 0 0 0 0 0 0 0 0 0 0 0 0
0 0 0 0 0 0 0 0 0 0 0 0 0 0 0 0 0 0 0 0 0 0 0 0 0 0 0 0 0 0 0 0 0 0 0 0 0 0 0 0 0 0 0
0 0 0 0 0 0 0 0 0 0 0 0 0 0 0 0 0 0 0 0 0 0 0 0 0 0 0 0 0 0 0 0 0 0 0 0 0 0 0 0 0 0 0
0 0 0 0 0 0 0 0 0 0 0 0 0 0 0 0 0 0 0 0 0 0 0 0 0 0 0 0 0 0 0 0 0 0 0 0 0 0 0 0 0 0 0
0 0 0 0 0 0 0 0 0 0 0 0 0 0 0 0 0 0 0 0 0 0 0 0 0 0 0 0 0 0 0 0 0 0 0 0 0 0 0 0 0 0 0
0 0 0 0 0 0 0 0 0 0 0 0 0 0 0 0 0 0 0 0 0 0 0 0 0 0 0 0 0 0 0 0 0 0 0 0 0 0 0 0 0 0 0
0 0 0 0 0 0 0 0 0 0 0 0 0 0 0 0 0 0 0 0 0 0 0 0 0 0 0 0 0 0 0 0 0 0 0 0 0 0 0 0 0 0 0
0 0 0 0 0 0 0 0 0 0 0 0 0 0 0 0 0 0 0 0 0 0 0 0 0 0 0 0 0 0 0 0 0 0 0 0 0 0 0 0 0 0 0
0 0 0 0 0 0 0 0 0 0 0 0 0 0 0 0 0 0 0 0 0 0 0 0 0 0 0 0 0 0 0 0 0 0 0 0 0 0 0 0 0 0 0
0 0 0 0 0 0 0 0 0 0 0 0 0 0 0 0 0 0 0 0 0 0 0 0 0 0 0 0 0 0 0 0 0 0 0 0 0 0 0 0 0 0 0
0 0 0 0 0 0 0 0 0 0 0 0 0 0 0 0 0 0 0 0 0 0 0 0 0 0 0 0 0 0 0 0 0 0 0 0 0 0 0 0 0 0 0
0 0 0 0 0 0 0 0 0 0 0 0 0 0 0 0 0 0 0 0 0 0 0 0 0 0 0 0 0 0 0 0 0 0 0 0 0 0 0 0 0 0 0
0 0 0 0 0 0 0 0 0 0 0 0 0 0 0 0 0 0 0 0 0 0 0 0 0 0 0 0 0 0 0 0 0 0 0 0 0 0 0 0 0 0 0
0 0 0 0 0 0 0 0 0 0 0 0 0 0 0 0 0 0 0 0 0 0 0 0 0 0 0 0 0 0 0 0 0 0 0 0 0 0 0 0 0 0 0
0 0 0 0 0 0 0 0 0 0 0 0 0 0 0 0 0 0 0 0 0 0 0 0 0 0 0 0 0 0 0 0 0 0 0 0 0 0 0 0 0 0 0
0 0 0 0 0 0 0 0 0 0 0 0 0 0 0 0 0 0 0 0 0 0 0 0 0 0 0 0 0 0 0 0 0 0 0 0 0 0 0 0 0 0 0
0 0 0 0 0 0 0 0 0 0 0 0 0 0 0 0 0 0 0 0 0 0 0 0 0 0 0 0 0 0 0 0 0 0 0 0 0 0 0 0 0 0 0
0 0 0 0 0 0 0 0 0 0 0 0 0 0 0 0 0 0 0 0 0 0 0 0 0 0 0 0 0 0 0 0 0 0 0 0 0 0 0 0 0 0 0
0 0 0 0 0 0 0 0 0 0 0 0 0 0 0 0 0 0 0 0 0 0 0 0 0 0 0 0 0 0 0 0 0 0 0 0 0 0 0 0 0 0 0
0 0 0 0 0 0 0 0 0 0 0 0 0 0 0 0 0 0 0 0 0 0 0 0 0 0 0 0 0 0 0 0 0 0 0 0 0 0 0 0 0 0 0
0 0 0 0 0 0 0 0 0 0 0 0 0 0 0 0 0 0 0 0 0 0 0 0 0 0 0 0 0 0 0 0 0 0 0 0 0 0 0 0 0 0 0
0 0 0 0 0 0 0 0 0 0 0 0 0 0 0 0 0 0 0 0 0 0 0 0 0 0 0 0 0 0 0 0 0 0 0 0 0 0 0 0 0 0 0
0 0 0 0 0 0 0 0 0 0 0 0 0 0 0 0 0 0 0 0 0 0 0 0 0 0 0 0 0 0 0 0 0 0 0 0 0 0 0 0 0 0 0
Wind_Speed
3 4 6 5 6 7 7 8 8 8 8 8 8 8 9 9 9 8 9 9 9 8 8 8 8 9 9 8 8 8 8 8 7 7 7 7 5 6 6 6 4 5 7
4 5 6 5 6 7 7 7 8 8 7 7 8 9 9 9 9 9 9 9 9 9 9 8 8 8 8 8 8 8 8 7 7 7 6 7 8 8 7 6 6 5 6
5 5 6 6 6 7 7 8 8 8 8 8 9 9 9 9 9 9 9 10 10 9 9 9 9 8 8 8 8 8 8 7 7 5 3 5 7 9 7 7 6 6 6
5 5 7 7 7 7 8 9 9 9 9 10 10 10 10 10 10 10 10 10 10 10 9 9 9 8 8 8 8 8 8 7 6 2 3 5 6 9 8 7 6 5 6
6 6 8 7 7 7 7 8 9 9 10 10 10 10 10 10 10 10 10 11 11 10 10 9 9 8 8 8 8 8 7 6 4 3 5 5 6 8 7 6 6 6 6
6 6 8 6 7 7 8 8 9 9 10 10 10 10 10 10 10 10 11 11 11 11 10 10 9 8 8 8 8 8 7 5 3 6 5 6 6 7 7 7 7 7 6
6 6 8 7 7 7 8 8 9 9 9 10 10 10 10 10 10 10 11 11 11 11 11 10 9 9 9 8 8 8 7 4 6 6 6 7 8 9 8 7 7 7 7
6 6 7 8 7 8 8 9 9 9 9 9 9 9 10 10 10 10 10 11 11 11 11 10 10 10 9 8 7 7 6 4 6 6 6 7 9 9 8 8 8 8 7
5 5 5 6 7 8 9 9 9 9 9 9 9 9 9 9 9 10 10 10 10 10 10 10 10 10 9 8 7 7 6 4 5 5 6 6 8 8 9 9 8 8 8
5 5 5 5 5 6 8 9 9 9 9 8 8 8 7 7 8 8 8 10 10 10 10 11 10 10 9 8 8 6 3 1 5 6 5 7 8 8 8 9 9 8 8
5 4 4 5 5 5 6 7 7 7 7 6 6 6 3 4 6 6 10 10 10 10 10 10 10 9 8 8 8 4 1 3 6 5 5 8 7 8 8 9 9 9 9
5 4 4 4 4 5 4 4 4 4 4 4 4 4 3 4 5 6 9 9 9 8 8 9 7 5 3 5 5 1 3 5 5 5 6 8 8 8 8 9 9 9 9
5 4 4 4 4 4 3 3 3 2 3 3 4 4 3 4 3 3 3 4 5 4 5 5 3 4 4 4 4 5 5 5 4 4 6 8 7 7 8 8 8 9 9
5 4 4 3 3 4 3 3 3 2 2 3 3 4 3 2 3 3 3 3 3 3 4 4 3 5 5 5 5 5 6 4 4 4 6 9 8 9 8 8 8 8 8
5 4 4 3 3 3 3 3 3 2 2 3 2 2 3 2 2 3 3 3 3 3 3 3 3 5 4 5 5 5 6 6 5 4 4 9 9 9 9 9 8 8 7
5 4 4 3 3 3 3 3 2 2 2 2 2 2 3 2 2 2 3 3 3 3 3 3 4 3 3 4 5 5 5 5 5 4 4 5 8 8 8 8 8 7 7
4 4 4 3 3 3 2 3 2 1 1 2 2 2 3 2 2 2 2 2 2 2 2 3 4 3 3 3 3 4 4 4 4 4 4 3 4 6 7 7 8 8 7
4 4 4 3 3 3 2 2 2 2 2 2 1 1 2 2 2 2 2 2 2 2 2 2 2 2 2 2 2 3 3 3 4 4 3 3 3 3 5 8 8 8 8
5 5 5 4 3 3 3 2 2 1 1 1 1 1 1 1 1 1 1 1 2 1 2 2 2 2 2 2 2 2 3 3 3 3 3 4 4 3 3 4 5 7 8
5 5 5 5 4 4 3 2 2 1 1 1 1 1 1 0 1 1 1 1 1 1 1 1 1 1 1 1 1 1 2 2 2 2 3 2 3 4 4 3 2 4 6
6 6 5 5 5 4 3 2 2 1 1 1 1 1 1 0 0 1 0 0 0 0 0 0 1 1 1 1 1 0 0 1 2 1 1 1 2 3 2 3 3 2 2
6 6 6 5 5 4 3 2 2 1 1 1 1 1 1 0 0 0 1 1 1 1 1 1 0 1 0 1 2 2 1 1 2 1 1 1 2 1 2 2 2 2 2
6 6 5 5 5 5 4 3 2 2 2 2 2 1 1 1 1 1 1 1 1 2 1 2 1 2 1 1 2 3 2 1 1 1 0 1 1 1 1 1 2 2 2
6 5 6 6 5 5 5 4 4 3 2 2 2 2 2 1 1 1 1 2 2 2 2 2 2 2 2 1 1 2 3 3 3 1 1 0 1 2 2 1 1 2 1
5 5 5 6 6 5 5 5 5 4 2 2 1 2 2 2 1 1 2 2 2 2 2 2 2 2 2 2 2 2 2 2 4 3 2 1 1 1 1 1 1 1 1
3 4 5 5 5 5 5 6 5 5 4 3 3 2 2 1 1 1 1 2 2 2 2 2 2 3 3 3 3 2 3 2 2 2 3 3 2 1 1 1 2 1 1
Wind_Direction
73 71 62 60 68 71 74 75 76 74 73 77 80 80 78 80 78 75 72 71 74 75 78 79 80 81 80 81 82 81 82 82 78 75 72 68 76 88 84 78 83 96 88
87 84 74 64 72 76 75 77 78 76 76 77 77 78 78 79 75 73 70 70 73 74 76 78 79 82 79 80 80 80 79 79 76 74 74 78 80 85 83 74 57 63 77
96 91 91 70 76 78 76 78 80 78 77 77 78 79 79 78 74 72 70 70 72 73 75 77 77 79 80 80 81 81 77 75 75 79 88 82 81 74 73 73 69 65 69
96 89 80 72 75 80 78 78 81 79 78 78 79 80 80 77 74 71 71 71 71 73 74 74 71 75 78 79 80 79 74 70 66 67 77 69 75 74 67 65 64 61 63
97 88 81 70 76 81 79 81 84 83 80 79 79 78 79 77 76 73 70 69 70 71 72 71 67 70 75 78 77 75 73 70 69 65 68 67 67 71 68 66 65 61 57
102 92 88 72 77 83 82 83 85 85 82 80 78 78 77 75 75 73 70 67 66 68 69 68 65 63 69 70 71 71 72 63 71 63 61 64 67 68 63 65 66 61 55
105 96 93 79 80 85 85 87 87 84 82 80 79 79 79 76 75 72 68 67 66 65 65 67 66 65 67 67 69 69 67 48 64 66 64 65 64 64 63 62 65 64 57
102 98 101 100 86 84 85 87 86 83 80 80 79 77 76 73 70 67 66 67 65 64 65 65 65 65 65 66 68 67 59 25 72 67 67 65 60 60 62 60 59 58 54
102 98 95 102 109 104 91 86 84 81 79 80 78 76 76 75 73 69 67 67 68 67 66 64 64 64 63 66 69 69 65 32 58 62 65 63 57 57 58 54 55 54 51
106 97 93 95 95 101 102 91 85 80 77 78 76 74 78 88 85 75 71 66 66 67 65 64 63 63 63 67 67 67 72 75 61 62 58 63 57 55 56 53 52 50 50
109 96 91 91 91 90 90 99 100 94 81 86 91 85 89 86 85 87 66 61 62 64 63 63 62 63 67 78 71 66 75 59 63 55 54 55 54 54 57 56 52 49 49
121 107 93 88 86 91 90 95 88 89 91 76 72 80 72 73 72 73 81 68 65 64 72 66 65 72 55 70 80 84 56 55 55 58 58 53 52 54 56 54 51 47 46
121 111 100 96 91 88 94 89 81 77 79 70 63 70 69 74 83 79 82 87 76 66 67 79 79 54 53 55 45 48 45 42 45 48 57 53 46 49 51 49 50 47 44
116 108 102 97 100 96 94 90 90 87 80 71 59 68 69 70 69 69 66 59 57 54 47 46 49 56 50 55 52 48 47 42 42 42 55 56 51 51 50 47 45 45 44
130 127 111 104 93 97 93 82 87 83 76 82 66 56 67 66 70 75 75 62 51 48 48 43 48 51 45 43 43 42 41 40 42 41 57 61 54 47 45 45 42 40 40
145 135 125 119 106 102 101 98 81 79 90 80 76 62 66 69 69 72 78 67 52 40 41 46 58 55 49 47 42 39 37 34 37 38 48 65 64 50 41 40 39 35 33
155 143 135 133 124 115 104 91 88 84 90 85 82 72 69 69 67 63 61 67 56 50 57 54 59 52 60 59 54 45 39 33 35 42 45 38 57 64 47 36 34 31 30
167 154 142 150 148 133 119 106 101 99 87 85 84 85 78 81 81 68 64 61 53 51 60 62 53 52 57 46 41 41 41 42 38 41 43 48 41 40 59 44 30 27 36
179 169 160 163 165 152 143 134 118 112 95 85 82 79 85 91 90 87 73 67 62 59 62 62 53 46 50 42 32 31 33 37 36 37 46 47 48 36 42 64 45 35 43
183 179 171 169 176 162 160 158 143 134 119 103 91 75 50 58 97 96 113 89 74 73 67 73 76 64 44 41 23 24 30 35 46 33 34 44 39 37 29 28 42 76 62
189 190 181 182 179 173 170 177 176 170 166 147 117 94 86 337 106 112 190 124 82 85 343 43 62 86 40 351 309 10 94 67 47 54 18 11 35 31 18 27 17 18 90
193 196 189 188 184 180 179 184 189 186 196 175 171 174 193 210 304 258 229 203 196 211 246 230 227 283 299 298 302 292 269 174 140 67 26 349 349 24 3 5 13 25 17
198 196 197 192 188 185 179 181 182 172 184 176 180 184 211 239 239 269 271 241 225 222 228 246 246 263 284 281 311 307 302 329 22 157 58 336 354 347 333 342 350 359 16
201 198 200 195 195 189 185 192 196 199 201 204 193 186 193 203 222 252 260 251 236 233 235 245 249 262 267 262 267 301 317 326 293 256 191 56 357 334 327 319 311 329 352
194 194 199 194 194 194 195 193 207 211 215 202 198 199 199 182 208 237 258 249 241 232 241 252 262 264 262 269 262 254 266 279 278 287 286 281 251 292 321 305 291 298 316
186 189 193 197 192 192 197 200 205 209 210 202 205 202 205 184 204 226 253 247 242 238 239 239 241 247 259 267 269 267 266 269 276 280 279 283 291 296 284 290 278 275 274